FW0879 Weather Reports


time (UTC)temp
C
wind
direction
speed
KPH
gust
KPH
rain 1hr
cm
rain 24hr
cm
rain mn
cm
humidity
%
barometer
mb
20260506224403 15 275 4.8 8.0 0.00 0.00 0.00 77 1010.5
20260506223903 15 262 4.8 8.0 0.00 0.00 0.00 77 1010.6
20260506223403 15 265 8.0 11.3 0.00 0.00 0.00 77 1010.7
20260506222903 15 267 4.8 4.8 0.00 0.00 0.00 77 1010.6
20260506222403 15 275 4.8 8.0 0.00 0.00 0.00 78 1010.5
20260506221903 15 257 4.8 8.0 0.00 0.00 0.00 78 1010.5
20260506221403 15 253 6.4 8.0 0.00 0.00 0.00 78 1010.5
20260506220403 15 248 6.4 11.3 0.00 0.00 0.00 78 1010.6
20260506215903 15 259 8.0 11.3 0.00 0.00 0.00 78 1010.6
20260506215403 15 251 8.0 9.7 0.00 0.00 0.00 78 1010.6
20260506214903 15 265 8.0 9.7 0.00 0.00 0.00 78 1010.5
20260506214403 15 268 4.8 9.7 0.00 0.00 0.00 78 1010.5
20260506213904 15 249 8.0 9.7 0.00 0.00 0.00 78 1010.5
20260506213404 15 251 4.8 8.0 0.00 0.00 0.00 78 1010.6
20260506212403 16 253 4.8 8.0 0.00 0.00 0.00 77 1010.4
20260506211904 16 246 3.2 4.8 0.00 0.00 0.00 76 1010.3
20260506211403 16 244 3.2 4.8 0.00 0.00 0.00 76 1010.3
20260506210403 16 192 1.6 4.8 0.00 0.00 0.00 75 1010.2
20260506205904 17 146 0.0 1.6 0.00 0.00 0.00 75 1010.2
20260506205403 17 146 1.6 1.6 0.00 0.00 0.00 75 1010.2
20260506204903 17 146 0.0 3.2 0.00 0.00 0.00 75 1010.1
20260506204403 17 141 1.6 3.2 0.00 0.00 0.00 75 1009.9
20260506203903 17 132 0.0 1.6 0.00 0.00 0.00 75 1009.8
20260506203403 17 132 0.0 3.2 0.00 0.00 0.00 75 1009.8
20260506202904 17 132 1.6 3.2 0.00 0.00 0.00 74 1009.8
20260506202404 17 132 3.2 4.8 0.00 0.00 0.00 74 1009.8
20260506201903 17 131 3.2 8.0 0.00 0.00 0.00 74 1009.8
20260506201403 17 140 8.0 9.7 0.00 0.00 0.00 73 1009.8
20260506200903 17 140 4.8 8.0 0.00 0.00 0.00 72 1009.8
20260506200403 17 132 3.2 8.0 0.00 0.00 0.00 72 1009.7
20260506195904 17 151 4.8 8.0 0.00 0.00 0.00 71 1009.6
20260506195403 17 134 6.4 8.0 0.00 0.00 0.00 71 1009.4
20260506194903 17 131 6.4 9.7 0.00 0.00 0.00 71 1009.3
20260506193403 17 136 4.8 8.0 0.00 0.00 0.00 69 1009.3
20260506192903 17 134 4.8 8.0 0.00 0.00 0.00 69 1009.3
20260506192403 17 135 4.8 8.0 0.00 0.00 0.00 69 1009.2
20260506191903 17 129 3.2 8.0 0.00 0.00 0.00 69 1009.2
20260506191404 17 117 6.4 9.7 0.00 0.00 0.00 69 1009.1
20260506190903 17 132 6.4 9.7 0.00 0.00 0.00 68 1009.1
20260506190403 18 138 6.4 9.7 0.00 0.00 0.00 68 1009.2
20260506185903 18 135 4.8 8.0 0.00 0.00 0.00 68 1009.2
20260506184903 18 132 8.0 11.3 0.00 0.00 0.00 67 1009.2
20260506184404 18 116 8.0 9.7 0.00 0.00 0.00 66 1009.2
20260506183903 18 129 3.2 9.7 0.00 0.00 0.00 66 1009.2
20260506182904 18 117 8.0 12.9 0.00 0.00 0.00 65 1009.1
20260506182403 18 114 4.8 9.7 0.00 0.00 0.00 66 1009.0
20260506181904 18 76 4.8 9.7 0.00 0.00 0.00 66 1009.0
20260506181404 18 122 9.7 11.3 0.00 0.00 0.00 66 1009.0
20260506180904 18 108 8.0 9.7 0.00 0.00 0.00 66 1009.1
20260506175904 18 113 8.0 11.3 0.00 0.00 0.00 66 1008.9
20260506175404 18 105 8.0 14.5 0.00 0.05 0.00 66 1009.0
20260506174904 18 125 4.8 12.9 0.00 0.08 0.00 66 1008.8
20260506174404 18 106 8.0 14.5 0.00 0.08 0.00 66 1008.9
20260506173903 18 109 9.7 14.5 0.00 0.08 0.00 65 1008.9
20260506173404 18 89 9.7 14.5 0.00 0.08 0.00 64 1008.9
20260506172904 18 113 8.0 16.1 0.00 0.08 0.00 64 1008.9
20260506172403 18 94 11.3 14.5 0.00 0.08 0.00 64 1008.9
20260506171903 18 98 9.7 19.3 0.00 0.08 0.00 65 1008.9
20260506171403 18 91 9.7 19.3 0.00 0.08 0.00 65 1008.9
20260506170904 18 84 9.7 19.3 0.00 0.08 0.00 66 1008.9
20260506170403 18 85 9.7 19.3 0.00 0.08 0.00 66 1008.9
20260506165904 18 76 9.7 19.3 0.00 0.08 0.00 66 1008.9
20260506165404 18 93 11.3 19.3 0.00 0.08 0.00 65 1009.0
20260506164903 18 90 12.9 19.3 0.00 0.08 0.00 67 1008.9
20260506164404 18 73 8.0 19.3 0.00 0.08 0.00 67 1009.0
20260506163904 18 84 12.9 19.3 0.00 0.08 0.00 66 1009.1
20260506163404 18 80 14.5 19.3 0.00 0.08 0.00 67 1009.1
20260506162903 18 87 11.3 19.3 0.00 0.08 0.00 68 1009.1
20260506162403 18 78 14.5 19.3 0.00 0.08 0.00 67 1009.2
20260506161403 18 74 11.3 20.9 0.00 0.08 0.00 68 1009.0
20260506160903 18 74 12.9 19.3 0.00 0.08 0.00 66 1009.0
20260506160404 18 98 12.9 19.3 0.00 0.08 0.00 68 1009.0
20260506155904 18 75 14.5 20.9 0.00 0.08 0.00 68 1009.0
20260506155403 18 80 9.7 20.9 0.00 0.08 0.00 67 1008.9
20260506154904 18 81 14.5 19.3 0.00 0.08 0.00 68 1009.0
20260506153903 18 77 11.3 22.5 0.00 0.08 0.00 66 1009.0
20260506153404 18 74 11.3 20.9 0.00 0.08 0.00 66 1009.1
20260506152404 18 85 14.5 20.9 0.00 0.08 0.00 67 1009.1
20260506151404 18 84 11.3 19.3 0.00 0.08 0.00 67 1009.0
20260506150404 18 74 11.3 19.3 0.00 0.08 0.00 67 1009.1
20260506145903 18 83 12.9 20.9 0.00 0.08 0.00 68 1009.1
20260506145404 18 87 14.5 19.3 0.00 0.08 0.00 68 1009.1
20260506144903 18 80 11.3 19.3 0.00 0.08 0.00 67 1009.2
20260506144403 18 88 11.3 19.3 0.00 0.08 0.00 67 1009.3
20260506143903 18 87 11.3 19.3 0.00 0.08 0.00 66 1009.4
20260506143403 18 69 11.3 19.3 0.00 0.08 0.00 66 1009.4
20260506142404 18 80 9.7 16.1 0.00 0.08 0.00 66 1009.6
20260506141903 18 73 8.0 19.3 0.00 0.08 0.00 66 1009.7
20260506141403 18 91 8.0 19.3 0.00 0.08 0.00 66 1009.8
20260506140903 18 104 11.3 20.9 0.00 0.08 0.00 66 1009.8
20260506140403 18 73 11.3 27.4 0.00 0.08 0.00 66 1009.8
20260506135404 17 79 12.9 22.5 0.00 0.08 0.00 66 1009.8
20260506134903 17 96 16.1 24.1 0.00 0.08 0.00 66 1009.8
20260506133904 17 71 12.9 20.9 0.00 0.10 0.00 68 1010.0
20260506133403 18 91 19.3 24.1 0.00 0.10 0.00 68 1010.0
20260506132904 18 87 16.1 24.1 0.00 0.10 0.00 67 1010.0
20260506131904 18 95 16.1 29.0 0.00 0.10 0.00 67 1010.1
20260506131404 18 82 14.5 22.5 0.00 0.10 0.00 67 1010.1
20260506130904 18 73 12.9 19.3 0.00 0.10 0.00 66 1010.0
20260506130404 18 49 8.0 20.9 0.00 0.10 0.00 68 1010.2
20260506125904 18 89 12.9 24.1 0.00 0.10 0.00 68 1010.1
20260506125404 18 83 16.1 22.5 0.00 0.10 0.00 66 1010.2
20260506124904 18 83 9.7 19.3 0.00 0.10 0.00 65 1010.2
20260506123904 18 57 11.3 19.3 0.00 0.10 0.00 66 1010.2
20260506122904 18 60 11.3 24.1 0.00 0.23 0.00 67 1010.2
20260506122404 18 87 11.3 22.5 0.00 0.28 0.00 68 1010.2
20260506121904 18 77 11.3 20.9 0.00 0.28 0.00 68 1010.4
20260506121404 18 61 16.1 20.9 0.00 0.28 0.00 66 1010.3
20260506120903 18 63 9.7 19.3 0.00 0.28 0.00 67 1010.4
20260506120404 18 74 11.3 20.9 0.00 0.28 0.00 66 1010.4
20260506114404 18 46 16.1 22.5 0.00 0.28 0.00 65 1010.4
20260506113904 18 52 11.3 22.5 0.00 0.28 0.00 64 1010.5
20260506113403 19 73 11.3 20.9 0.00 0.28 0.00 64 1010.6
20260506112902 19 83 11.3 19.3 0.00 0.28 0.00 65 1010.6
20260506112402 19 56 14.5 24.1 0.00 0.28 0.00 64 1010.6
20260506111402 18 68 9.7 19.3 0.00 0.28 0.00 66 1010.7
20260506110902 18 67 11.3 20.9 0.00 0.28 0.00 66 1010.9
20260506105903 18 36 9.7 19.3 0.00 0.28 0.00 66 1010.8
20260506104902 18 70 9.7 19.3 0.00 0.28 0.00 67 1010.8
20260506104402 18 49 9.7 19.3 0.00 0.28 0.00 67 1010.7
20260506103903 18 55 11.3 19.3 0.00 0.28 0.00 66 1010.9
20260506103402 18 73 8.0 20.9 0.00 0.28 0.00 66 1010.8
20260506102902 18 49 4.8 20.9 0.00 0.28 0.00 65 1010.8
20260506102402 18 25 8.0 19.3 0.00 0.28 0.00 65 1010.8
20260506101402 18 65 12.9 19.3 0.00 0.28 0.00 67 1010.8
20260506100902 18 45 8.0 12.9 0.00 0.28 0.00 68 1010.7
20260506100402 18 46 11.3 19.3 0.00 0.28 0.00 70 1010.7
20260506095903 18 57 11.3 19.3 0.00 0.28 0.00 69 1010.6
20260506095402 18 36 9.7 19.3 0.00 0.28 0.00 69 1010.8
20260506094402 18 44 9.7 20.9 0.00 0.28 0.00 69 1010.7
20260506093903 18 62 9.7 19.3 0.00 0.28 0.00 69 1010.6
20260506093402 18 52 14.5 22.5 0.00 0.28 0.00 69 1010.6
20260506092902 18 51 9.7 20.9 0.00 0.28 0.00 69 1010.5
20260506091402 18 16 8.0 14.5 0.00 0.28 0.00 69 1010.2
20260506090902 18 53 12.9 19.3 0.00 0.28 0.00 69 1010.2
20260506085902 18 58 8.0 16.1 0.00 0.28 0.00 70 1010.1
20260506085402 18 57 8.0 19.3 0.00 0.28 0.00 70 1010.1
20260506084902 18 64 8.0 19.3 0.00 0.28 0.00 70 1010.2
20260506084402 18 48 14.5 24.1 0.00 0.28 0.00 69 1010.2
20260506083902 18 59 9.7 22.5 0.00 0.28 0.00 70 1010.1
20260506083402 18 48 9.7 19.3 0.00 0.28 0.00 69 1010.1
20260506082902 18 66 8.0 19.3 0.00 0.28 0.00 70 1010.2
20260506082402 18 52 11.3 19.3 0.00 0.28 0.00 69 1010.2
20260506081902 18 71 9.7 16.1 0.00 0.28 0.00 70 1010.2
20260506080903 18 49 9.7 19.3 0.00 0.28 0.00 71 1010.1
20260506080402 18 43 9.7 19.3 0.00 0.28 0.00 72 1010.1
20260506073402 18 52 4.8 16.1 0.00 0.28 0.00 72 1010.1
20260506072904 18 54 6.4 16.1 0.00 0.28 0.00 71 1010.1
20260506072402 18 87 8.0 12.9 0.00 0.28 0.00 70 1010.1
20260506071902 18 54 4.8 9.7 0.00 0.28 0.00 72 1010.0
20260506071402 17 60 4.8 11.3 0.00 0.28 0.00 72 1010.0
20260506070902 17 65 8.0 16.1 0.00 0.28 0.00 71 1010.1
20260506070402 17 39 3.2 8.0 0.00 0.28 0.00 72 1010.0
20260506062402 17 44 14.5 19.3 0.00 0.28 0.00 71 1009.9
20260506061903 18 41 6.4 19.3 0.00 0.28 0.00 71 1009.9
20260506061403 18 47 4.8 12.9 0.00 0.28 0.00 70 1010.0
20260506060902 17 4 6.4 14.5 0.00 0.28 0.00 70 1009.9
20260506060402 17 38 6.4 14.5 0.00 0.28 0.00 71 1009.9
20260506051402 17 15 16.1 22.5 0.00 0.28 0.00 69 1009.3
20260506044902 17 15 16.1 25.7 0.00 0.28 0.00 69 1009.1
20260506044403 17 13 14.5 20.9 0.00 0.28 0.00 69 1009.1
20260506043902 17 13 14.5 20.9 0.00 0.28 0.00 69 1009.1
20260506043402 17 12 12.9 20.9 0.00 0.28 0.00 70 1009.0
20260506042903 17 20 14.5 22.5 0.00 0.28 0.00 71 1009.0
20260506041903 17 11 14.5 20.9 0.00 0.28 0.00 71 1009.0
20260506041402 17 15 14.5 20.9 0.00 0.28 0.00 72 1009.0
20260506040903 17 25 9.7 19.3 0.00 0.28 0.00 73 1009.0
20260506040403 17 34 11.3 20.9 0.00 0.28 0.00 73 1009.0
20260506035902 17 14 14.5 20.9 0.00 0.28 0.00 73 1008.9
20260506035402 18 31 14.5 20.9 0.00 0.28 0.00 75 1008.9
20260506034902 18 14 8.0 19.3 0.00 0.28 0.00 75 1009.0
20260506034403 18 24 8.0 11.3 0.00 0.28 0.00 75 1009.0
20260506033902 18 37 4.8 9.7 0.00 0.28 0.00 75 1009.0
20260506033402 18 35 3.2 8.0 0.00 0.28 0.00 75 1009.0
20260506032903 18 44 3.2 4.8 0.00 0.28 0.00 75 1009.0
20260506032403 18 38 3.2 9.7 0.00 0.28 0.00 74 1009.0
20260506031903 18 42 4.8 12.9 0.00 0.28 0.00 74 1009.0
20260506031402 18 49 8.0 16.1 0.00 0.28 0.00 74 1008.9
20260506030902 18 45 8.0 16.1 0.00 0.28 0.00 75 1008.9
20260506030403 18 56 8.0 12.9 0.00 0.28 0.00 76 1008.9
20260506025902 18 61 6.4 11.3 0.00 0.28 0.00 76 1008.9
20260506025402 18 47 8.0 14.5 0.00 0.28 0.00 76 1008.9
20260506024902 18 46 6.4 12.9 0.00 0.28 0.00 76 1008.9
20260506024402 18 59 4.8 16.1 0.00 0.28 0.00 77 1008.9
20260506023903 18 48 6.4 11.3 0.00 0.28 0.00 77 1008.9
20260506023402 18 48 4.8 16.1 0.00 0.28 0.00 76 1008.9
20260506022403 18 45 11.3 20.9 0.00 0.28 0.00 76 1008.9
20260506021402 18 26 8.0 14.5 0.00 0.28 0.00 76 1009.0
20260506020903 18 50 9.7 19.3 0.00 0.28 0.00 77 1009.0
20260506020402 18 45 8.0 22.5 0.00 0.28 0.00 77 1009.0
20260506015903 18 37 9.7 19.3 0.00 0.28 0.00 77 1009.0
20260506015403 18 31 4.8 20.9 0.00 0.28 0.00 78 1009.0
20260506014902 18 46 11.3 19.3 0.00 0.28 0.00 78 1009.0
20260506014402 17 41 9.7 20.9 0.00 0.28 0.00 78 1009.0
20260506013903 17 24 12.9 25.7 0.00 0.28 0.00 79 1009.0
20260506013402 17 15 12.9 19.3 0.00 0.28 0.00 80 1009.0
20260506012903 18 19 12.9 22.5 0.00 0.28 0.00 80 1009.0
20260506011903 18 47 12.9 20.9 0.00 0.28 0.00 80 1009.0
20260506011402 18 14 11.3 20.9 0.00 0.28 0.00 80 1009.0
20260506010903 18 30 17.7 25.7 0.00 0.28 0.00 80 1009.0
20260506010402 18 32 12.9 24.1 0.00 0.28 0.00 82 1009.0
20260506005402 18 26 19.3 25.7 0.00 0.28 0.00 83 1009.0
20260506004902 18 28 14.5 24.1 0.00 0.28 0.00 84 1009.0
20260506003902 18 13 16.1 24.1 0.00 0.28 0.00 84 1009.0
20260506003403 18 31 9.7 20.9 0.00 0.28 0.00 84 1009.0
20260506002903 18 336 8.0 14.5 0.00 0.28 0.00 83 1009.0
20260506002402 18 290 8.0 14.5 0.00 0.28 0.00 83 1009.0
20260506001903 18 291 11.3 20.9 0.00 0.28 0.00 83 1008.9
20260506001403 18 308 9.7 19.3 0.00 0.28 0.00 83 1008.9
20260505235903 18 271 14.5 20.9 0.00 0.28 0.00 82 1009.0
20260505235403 18 269 14.5 25.7 0.00 0.28 0.00 81 1009.0
20260505234903 18 265 19.3 27.4 0.00 0.28 0.00 81 1009.0
20260505234403 18 256 19.3 32.2 0.00 0.28 0.00 80 1009.1
20260505233402 18 251 17.7 25.7 0.00 0.28 0.00 79 1009.1
20260505232903 18 255 16.1 27.4 0.00 0.28 0.00 78 1009.0
20260505232403 18 237 14.5 25.7 0.00 0.28 0.00 78 1009.0
20260505231903 18 217 14.5 27.4 0.00 0.28 0.00 77 1009.0
20260505231403 18 240 14.5 19.3 0.00 0.28 0.00 76 1008.9
20260505230902 18 250 12.9 27.4 0.00 0.28 0.00 74 1008.8
20260505230403 18 235 14.5 20.9 0.00 0.28 0.00 74 1008.7
20260505225902 18 254 9.7 19.3 0.00 0.28 0.00 71 1008.7
20260505225403 18 229 9.7 20.9 0.00 0.28 0.00 68 1008.7
20260505224902 18 227 12.9 20.9 0.00 0.28 0.00 63 1008.7